| time (UTC) | temp F | wind direction | speed MPH | gust MPH | rain 1hr in | rain 24hr in | rain mn in | humidity % | barometer mb |
| 20260903211555 | 76 | 275 | 12.0 | 19.0 | 0.00 | 0.00 | 0.00 | 30 | 1010.3 |
| 20260903210039 | 76 | 242 | 12.0 | 24.0 | 0.00 | 0.00 | 0.00 | 30 | 1010.6 |
| 20260903204538 | 76 | 239 | 15.0 | 27.0 | 0.00 | 0.00 | 0.00 | 29 | 1010.5 |
| 20260903203036 | 76 | 262 | 12.0 | 26.0 | 0.00 | 0.00 | 0.00 | 30 | 1010.4 |
| 20260903201538 | 75 | 244 | 15.0 | 30.0 | 0.00 | 0.00 | 0.00 | 31 | 1010.7 |
| 20260903200034 | 75 | 259 | 12.0 | 26.0 | 0.00 | 0.00 | 0.00 | 31 | 1010.6 |
| 20260903194536 | 74 | 200 | 11.0 | 31.0 | 0.00 | 0.00 | 0.00 | 32 | 1010.6 |
| 20260903193039 | 74 | 250 | 16.0 | 27.0 | 0.00 | 0.00 | 0.00 | 32 | 1010.8 |
| 20260903191534 | 74 | 271 | 14.0 | 30.0 | 0.00 | 0.00 | 0.00 | 33 | 1010.7 |
| 20260903190038 | 73 | 247 | 16.0 | 26.0 | 0.00 | 0.00 | 0.00 | 33 | 1010.7 |
| 20260903184548 | 73 | 221 | 12.0 | 27.0 | 0.00 | 0.00 | 0.00 | 34 | 1010.7 |
| 20260903183035 | 72 | 200 | 14.0 | 23.0 | 0.00 | 0.00 | 0.00 | 33 | 1010.9 |
| 20260903181533 | 73 | 244 | 14.0 | 25.0 | 0.00 | 0.00 | 0.00 | 34 | 1011.1 |
| 20260903180039 | 71 | 232 | 10.0 | 26.0 | 0.00 | 0.00 | 0.00 | 36 | 1011.1 |
| 20260903174539 | 71 | 225 | 13.0 | 24.0 | 0.00 | 0.00 | 0.00 | 34 | 1011.3 |
| 20260903173039 | 71 | 202 | 16.0 | 24.0 | 0.00 | 0.00 | 0.00 | 35 | 1011.2 |
| 20260903171537 | 70 | 227 | 15.0 | 27.0 | 0.00 | 0.00 | 0.00 | 36 | 1011.2 |
| 20260903170036 | 70 | 199 | 12.0 | 22.0 | 0.00 | 0.00 | 0.00 | 35 | 1011.1 |
| 20260903164536 | 69 | 165 | 15.0 | 25.0 | 0.00 | 0.00 | 0.00 | 36 | 1011.2 |
| 20260903163042 | 69 | 225 | 13.0 | 23.0 | 0.00 | 0.00 | 0.00 | 37 | 1011.0 |
| 20260903161534 | 68 | 197 | 12.0 | 22.0 | 0.00 | 0.00 | 0.00 | 39 | 1011.0 |
| 20260903160038 | 67 | 186 | 10.0 | 21.0 | 0.00 | 0.00 | 0.00 | 42 | 1011.0 |
| 20260903154539 | 65 | 188 | 15.0 | 22.0 | 0.00 | 0.00 | 0.00 | 43 | 1011.1 |
| 20260903153040 | 63 | 211 | 12.0 | 18.0 | 0.00 | 0.00 | 0.00 | 47 | 1011.2 |
| 20260903151535 | 63 | 180 | 7.0 | 14.0 | 0.00 | 0.00 | 0.00 | 48 | 1011.2 |
| 20260903150036 | 63 | 216 | 7.0 | 15.0 | 0.00 | 0.00 | 0.00 | 48 | 1011.3 |
| 20260903144539 | 61 | 202 | 7.0 | 14.0 | 0.00 | 0.00 | 0.00 | 50 | 1011.4 |
| 20260903143040 | 56 | 0 | 0.0 | 3.0 | 0.00 | 0.00 | 0.00 | 63 | 1011.6 |
| 20260903141535 | 55 | 5 | 2.0 | 5.0 | 0.00 | 0.00 | 0.00 | 63 | 1011.5 |
| 20260903140043 | 55 | 0 | 0.0 | 5.0 | 0.00 | 0.00 | 0.00 | 64 | 1011.4 |
| 20260903134535 | 53 | 0 | 0.0 | 5.0 | 0.00 | 0.00 | 0.00 | 66 | 1011.4 |
| 20260903133042 | 54 | 144 | 7.0 | 11.0 | 0.00 | 0.00 | 0.00 | 66 | 1011.3 |
| 20260903131537 | 52 | 0 | 3.0 | 7.0 | 0.00 | 0.00 | 0.00 | 68 | 1011.3 |
| 20260903130044 | 54 | 316 | 0.0 | 4.0 | 0.00 | 0.00 | 0.00 | 63 | 1010.9 |
| 20260903124547 | 55 | 221 | 5.0 | 11.0 | 0.00 | 0.00 | 0.00 | 61 | 1010.7 |
| 20260903123037 | 55 | 275 | 3.0 | 10.0 | 0.00 | 0.00 | 0.00 | 62 | 1010.5 |
| 20260903121539 | 54 | 213 | 3.0 | 8.0 | 0.00 | 0.00 | 0.00 | 63 | 1010.2 |
| 20260903120033 | 54 | 279 | 3.0 | 10.0 | 0.00 | 0.00 | 0.00 | 63 | 1010.3 |
| 20260903114534 | 54 | 167 | 6.0 | 10.0 | 0.00 | 0.00 | 0.00 | 62 | 1010.3 |
| 20260903113036 | 54 | 155 | 6.0 | 11.0 | 0.00 | 0.00 | 0.00 | 62 | 1010.5 |
| 20260903111537 | 51 | 232 | 2.0 | 10.0 | 0.00 | 0.00 | 0.00 | 69 | 1010.6 |
| 20260903110041 | 52 | 159 | 1.0 | 10.0 | 0.00 | 0.00 | 0.00 | 66 | 1010.4 |
| 20260903104536 | 51 | 186 | 1.0 | 3.0 | 0.00 | 0.00 | 0.00 | 68 | 1010.5 |
| 20260903103038 | 52 | 0 | 0.0 | 7.0 | 0.00 | 0.00 | 0.00 | 66 | 1010.3 |
| 20260903101536 | 51 | 146 | 0.0 | 7.0 | 0.00 | 0.00 | 0.00 | 66 | 1010.3 |
| 20260903100038 | 53 | 150 | 4.0 | 6.0 | 0.00 | 0.00 | 0.00 | 63 | 1010.3 |
| 20260903094545 | 54 | 190 | 2.0 | 6.0 | 0.00 | 0.00 | 0.00 | 61 | 1010.2 |
| 20260903093034 | 55 | 197 | 4.0 | 12.0 | 0.00 | 0.00 | 0.00 | 60 | 1009.9 |
| 20260903091540 | 53 | 145 | 4.0 | 10.0 | 0.00 | 0.00 | 0.00 | 62 | 1009.9 |
| 20260903090051 | 52 | 167 | 0.0 | 4.0 | 0.00 | 0.00 | 0.00 | 64 | 1009.7 |
| 20260903084538 | 53 | 182 | 5.0 | 11.0 | 0.00 | 0.00 | 0.00 | 63 | 1009.5 |
| 20260903083054 | 53 | 169 | 5.0 | 9.0 | 0.00 | 0.00 | 0.00 | 62 | 1009.4 |
| 20260903081536 | 53 | 174 | 8.0 | 13.0 | 0.00 | 0.00 | 0.00 | 62 | 1009.6 |
| 20260903080039 | 53 | 144 | 7.0 | 14.0 | 0.00 | 0.00 | 0.00 | 62 | 1009.7 |
| 20260903074541 | 52 | 192 | 4.0 | 13.0 | 0.00 | 0.00 | 0.00 | 64 | 1009.7 |
| 20260903073038 | 50 | 122 | 0.0 | 6.0 | 0.00 | 0.00 | 0.00 | 66 | 1009.8 |
| 20260903071541 | 50 | 161 | 2.0 | 9.0 | 0.00 | 0.00 | 0.00 | 67 | 1009.7 |
| 20260903070039 | 51 | 141 | 5.0 | 10.0 | 0.00 | 0.00 | 0.00 | 64 | 1009.7 |
| 20260903064538 | 53 | 148 | 6.0 | 13.0 | 0.00 | 0.00 | 0.00 | 60 | 1009.7 |
| 20260903063045 | 52 | 167 | 6.0 | 12.0 | 0.00 | 0.00 | 0.00 | 64 | 1009.6 |
| 20260903061539 | 52 | 122 | 5.0 | 10.0 | 0.00 | 0.00 | 0.00 | 62 | 1009.8 |
| 20260903060109 | 54 | 148 | 8.0 | 11.0 | 0.00 | 0.00 | 0.00 | 59 | 1009.9 |
| 20260903054539 | 56 | 161 | 5.0 | 10.0 | 0.00 | 0.00 | 0.00 | 57 | 1009.9 |
| 20260903053038 | 56 | 170 | 5.0 | 10.0 | 0.00 | 0.00 | 0.00 | 56 | 1010.0 |
| 20260903051539 | 56 | 184 | 4.0 | 8.0 | 0.00 | 0.00 | 0.00 | 57 | 1010.2 |
| 20260903050040 | 58 | 184 | 5.0 | 12.0 | 0.00 | 0.00 | 0.00 | 53 | 1010.4 |
| 20260903044540 | 58 | 186 | 5.0 | 11.0 | 0.00 | 0.00 | 0.00 | 53 | 1010.6 |
| 20260903043035 | 59 | 188 | 9.0 | 12.0 | 0.00 | 0.00 | 0.00 | 50 | 1010.8 |
| 20260903041540 | 58 | 191 | 6.0 | 12.0 | 0.00 | 0.00 | 0.00 | 52 | 1010.7 |
| 20260903040054 | 57 | 186 | 4.0 | 8.0 | 0.00 | 0.00 | 0.00 | 55 | 1010.9 |
| 20260903034542 | 58 | 166 | 4.0 | 10.0 | 0.00 | 0.00 | 0.00 | 54 | 1011.2 |
| 20260903033037 | 57 | 173 | 5.0 | 11.0 | 0.00 | 0.00 | 0.00 | 53 | 1010.8 |
| 20260903031538 | 60 | 188 | 10.0 | 17.0 | 0.00 | 0.00 | 0.00 | 48 | 1010.9 |
| 20260903030039 | 60 | 190 | 11.0 | 17.0 | 0.00 | 0.00 | 0.00 | 49 | 1010.7 |
| 20260903024535 | 58 | 152 | 8.0 | 16.0 | 0.00 | 0.00 | 0.00 | 52 | 1010.5 |
| 20260903023051 | 57 | 184 | 4.0 | 9.0 | 0.00 | 0.00 | 0.00 | 54 | 1010.6 |
| 20260903021538 | 60 | 163 | 6.0 | 13.0 | 0.00 | 0.00 | 0.00 | 50 | 1010.6 |
| 20260903020036 | 61 | 198 | 7.0 | 12.0 | 0.00 | 0.00 | 0.00 | 50 | 1010.2 |
| 20260903014545 | 61 | 217 | 8.0 | 16.0 | 0.00 | 0.00 | 0.00 | 50 | 1010.3 |
| 20260903013047 | 62 | 230 | 8.0 | 17.0 | 0.00 | 0.00 | 0.00 | 50 | 1010.2 |
| 20260903011543 | 64 | 238 | 12.0 | 22.0 | 0.00 | 0.00 | 0.00 | 49 | 1010.5 |
| 20260903010045 | 64 | 193 | 12.0 | 25.0 | 0.00 | 0.00 | 0.00 | 47 | 1010.2 |
| 20260903004535 | 66 | 202 | 16.0 | 27.0 | 0.00 | 0.00 | 0.00 | 45 | 1010.2 |
| 20260903003041 | 66 | 211 | 17.0 | 30.0 | 0.00 | 0.00 | 0.00 | 45 | 1010.1 |
| 20260903001538 | 66 | 221 | 22.0 | 31.0 | 0.00 | 0.00 | 0.00 | 44 | 1009.8 |
| 20260903000035 | 65 | 225 | 23.0 | 33.0 | 0.00 | 0.00 | 0.00 | 44 | 1009.6 |
| 20260902234551 | 64 | 250 | 17.0 | 32.0 | 0.00 | 0.00 | 0.00 | 47 | 1009.9 |
| 20260902233037 | 64 | 239 | 21.0 | 31.0 | 0.00 | 0.00 | 0.00 | 48 | 1009.6 |
| 20260902231543 | 61 | 232 | 17.0 | 28.0 | 0.00 | 0.00 | 0.00 | 56 | 1009.2 |
| 20260902230039 | 62 | 189 | 15.0 | 30.0 | 0.00 | 0.00 | 0.00 | 52 | 1008.6 |
| 20260902224542 | 60 | 213 | 19.0 | 32.0 | 0.00 | 0.00 | 0.00 | 57 | 1009.9 |
| 20260902223037 | 61 | 238 | 21.0 | 45.0 | 0.00 | 0.00 | 0.00 | 54 | 1009.6 |
| 20260902221536 | 61 | 259 | 32.0 | 52.0 | 0.00 | 0.00 | 0.00 | 57 | 1009.8 |
| 20260902220037 | 65 | 232 | 39.0 | 66.0 | 0.00 | 0.00 | 0.00 | 45 | 1009.8 |
| 20260902214541 | 68 | 223 | 33.0 | 59.0 | 0.00 | 0.00 | 0.00 | 42 | 1009.1 |
| 20260902213034 | 71 | 259 | 38.0 | 56.0 | 0.00 | 0.00 | 0.00 | 39 | 1008.1 |